www.pogodaiklimat.ru

Погода и климат >> Архив погоды >> Индонезия >> Каимана


ПОГОДА в Каимана

  • Прогноз погоды в Каимана
  • Монитор погоды в Каимана

АРХИВ ПОГОДЫ в Каимана

Время (UTC), дата Ветер
(напр.,м/с)
 
Видим.   Явления Облачность Т
(С)
Тd
(С)
f
(%)
Тe
(С)
Тes
(С)
Комфортность P
(гПа)
Po
(гПа)
Тmin
(С)
Tmax
(С)
R
(мм)
R24
(мм)
S
(см)
03 11.09 ЮВ 4 7000 м осадки на расстоянии 9/5 450 м
[Cu Sc As op]
+25.5 +21.6 79 +33 +35 очень
душно
1012.5 1011.6 0.2
06 11.09 ЮВ 5 8000 м {дождь} 9/5 450 м
[Cu Sc Ac trans Ci fib]
+26.3 +20.6 71 +33 +34 очень
душно
1010.7 1009.8 0.8
09 11.09 ЮВ 5 7000 м 9/5 450 м
[Cu Sc Ac trans Ci fib]
+24.3 +20.4 79 +30 +30 очень
душно
1011.8 1010.9
12 11.09 ЮВ 3 6000 м 8/4 450 м
[Cu Sc Ac lent Ci fib]
+24.0 +19.9 78 +29 +29 душно 1013.7 1012.8 +26.5
15 11.09 В 3 6000 м осадки на расстоянии 9/5 450 м
[Cu Sc Ac trans Ci fib]
+23.8 +20.1 80 +29 +29 душно 1013.7 1012.8
18 11.09 ЮВ 2 5000 м в посл. час дождь 10/6 450 м
[Cu Sc As op]
+23.0 +21.6 92 +31 +31 очень
душно
1012.4 1011.5 0.8
21 11.09 Ю 5 5000 м слаб. дождь 10/6 450 м
[Cu Sc As op]
+23.5 +21.8 90 +30 +30 очень
душно
1012.9 1012.0 3
00 12.09 ЮВ 4 8000 м осадки на расстоянии 8/5 450 м
[Cu Sc Ac trans Ci sp]
+25.2 +21.9 82 +32 +35 очень
душно
1014.4 1013.5 +22.9 0.3 5
03 12.09 Ю 7 8000 м 8/5 450 м
[Cu Sc Ac trans Ci sp]
+27.0 +22.2 75 +35 +37 очень
душно
1012.7 1011.8
06 12.09 Ю 5 9000 м 4/3 450 м
[Cu med, cong Ac lent]
+26.7 +23.0 80 +36 +40 очень
душно
1010.4 1009.5
09 12.09 Ю 4 8000 м 6/3 450 м
[Cu med, cong Ac trans Ci fib]
+24.4 +20.9 81 +31 +31 очень
душно
1011.3 1010.4
12 12.09 Ю 4 6000 м 8/4 450 м
[Cu Sc Ac trans Ci fib]
+24.4 +21.1 82 +31 +31 очень
душно
1013.3 1012.4 +27.6
15 12.09 Ю 4 6000 м 8/4 450 м
[Cu Sc Ac As Ci fib]
+24.4 +21.3 83 +31 +31 очень
душно
1013.2 1012.3
18 12.09 ЮВ 4 5000 м осадки на расстоянии 9/6 450 м
[Cu med, cong As op]
+23.9 +21.4 86 +30 +30 очень
душно
1012.2 1011.3
21 12.09 ЮВ 4 5000 м осадки на расстоянии 9/5 450 м
[Cu med, cong As op]
+23.7 +21.6 88 +30 +30 очень
душно
1012.9 1012.0 2
00 13.09 ЮВ 5 8000 м {дождь} 8/4 450 м
[Cu Sc Ac trans Ci sp]
+26.4 +22.9 81 +35 +38 очень
душно
1013.6 1012.7 +22.8 2
03 13.09 Ю 5 9000 м 6/4 450 м
[Cu Sc Ac trans Ci sp]
+26.9 +22.3 76 +35 +41 очень
душно
1011.6 1010.7
06 13.09 Ю 6 7000 м 8/4 450 м
[Cu Sc Ac trans Ci sp]
+27.0 +21.7 73 +35 +36 очень
душно
1009.9 1009.0
09 13.09 Ю 5 7000 м 8/4 450 м
[Cu Sc Ac trans Ci sp]
+24.6 +21.5 83 +31 +31 очень
душно
1011.0 1010.1
12 13.09 Ю 6 6000 м 8/4 450 м
[Cu Sc Ac trans Ci sp]
+24.6 +21.7 84 +31 +31 очень
душно
1013.3 1012.4 +28.3
15 13.09 Ю 4 6000 м 6/4 450 м
[Cu med, cong Ac As]
+24.5 +21.6 84 +31 +31 очень
душно
1013.1 1012.2
18 13.09 ЮВ 3 6000 м 6/4 480 м
[Cu med, cong Ac As]
+24.4 +21.3 83 +31 +31 очень
душно
1012.7 1011.8
21 13.09 ЮВ 3 5000 м мгла 6/4 480 м
[Cu med, cong Ac As]
+24.0 +21.3 85 +30 +30 очень
душно
1013.1 1012.2
00 14.09 ЮВ 2 7000 м 6/4 450 м
[Cu Sc Ac trans Ci fib]
+26.9 +22.1 75 +35 +40 очень
душно
1014.4 1013.5 +23.9
03 14.09 Ю 4 9000 м 8/4 450 м
[Cu Sc Ac trans Ci fib]
+26.5 +22.6 79 +35 +41 очень
душно
1012.6 1011.7
06 14.09 Ю 4 7000 м 9/5 450 м
[Cu Sc Ac trans Ci fib]
+26.6 +23.1 81 +36 +38 очень
душно
1010.6 1009.7
09 14.09 Ю 4 7000 м 9/5 450 м
[Cu Sc Ac trans Ci sp]
+24.6 +22.1 86 +32 +32 очень
душно
1011.6 1010.7
12 14.09 Ю 5 6000 м 9/5 450 м
[Cu Sc Ac trans Ci sp]
+24.6 +21.7 84 +31 +31 очень
душно
1012.8 1011.9 +28.1
15 14.09 ЮВ 2 6000 м 8/5 450 м
[Cu med, cong Ac As]
+24.2 +21.9 87 +31 +31 очень
душно
1013.1 1012.2
18 14.09 ЮВ 2 6000 м 8/5 450 м
[Cu med, cong Ac As]
+24.4 +21.3 83 +31 +31 очень
душно
1012.2 1011.3
21 14.09 ЮВ 2 5000 м мгла {туман} 8/5 450 м
[Cu med, cong Ac As]
+24.0 +21.3 85 +30 +30 очень
душно
1012.8 1011.9
00 15.09 Ю 3 9000 м {туман} 6/4 450 м
[Cu Sc Ac trans Ci fib]
+26.4 +21.6 75 +34 +38 очень
душно
1014.0 1013.1 +23.8
03 15.09 Ю 4 8000 м 9/5 450 м
[Cu Sc Ac trans Ci fib]
+26.8 +22.6 78 +35 +40 очень
душно
1012.5 1011.6
06 15.09 Ю 5 10 км 5/3 450 м
[Cu med, cong Ac trans Ci fib]
+27.2 +23.0 78 +36 +40 очень
душно
1010.6 1009.7
09 15.09 Ю 4 8000 м 8/4 450 м
[Cu Sc Ac trans Ci fib]
+24.7 +22.6 88 +32 +32 очень
душно
1011.1 1010.2
12 15.09 Ю 3 7000 м 9/3 450 м
[Cu Sc Ac trans Ci sp]
+24.6 +22.5 88 +32 +32 очень
душно
1012.6 1011.7 +28.3
15 15.09 ЮВ 2 6000 м 9/5 450 м
[Cu Sc Ac trans Ci fib]
+24.5 +22.7 90 +32 +32 очень
душно
1012.6 1011.7
18 15.09 ЮВ 4 5000 м 9/5 450 м
[Cu Sc Ac trans Ci fib]
+24.1 +22.7 92 +32 +32 очень
душно
1012.0 1011.1
21 15.09 ЮВ 3 6000 м осадки на расстоянии 10/6 450 м
[Cu Sc As op]
+24.1 +22.4 90 +31 +31 очень
душно
1012.8 1011.9
00 16.09 Ю 3 7000 м 9/5 450 м
[Cu Sc Ac trans Ci sp]
+26.6 +22.8 80 +35 +38 очень
душно
1013.9 1013.0 +24.0
03 16.09 Ю 4 9000 м 9/6 450 м
[Cu Sc Ac lent Ci sp]
+27.3 +23.3 79 +37 +41 очень
душно
1012.4 1011.5
06 16.09 Ю 3 9000 м 9/4 450 м
[Cu Sc Ac trans Ci sp]
+27.1 +24.6 86 +38 +42 очень
душно
1011.0 1010.1
09 16.09 ЮВ 3 7000 м 9/4 450 м
[Cu Sc Ac trans Ci sp]
+25.2 +23.4 90 +34 +34 очень
душно
1010.7 1009.8
12 16.09 ЮВ 3 6000 м 8/4 450 м
[Cu Sc Ac trans Ci sp]
+25.1 +23.3 90 +34 +34 очень
душно
1012.2 1011.3 +28.3
15 16.09 ЮЗ 3 6000 м 9/5 450 м
[Cu Sc Ac trans Ci fib]
+25.0 +23.2 90 +33 +33 очень
душно
1012.3 1011.4
18 16.09 ЮВ 2 5000 м 10/6 450 м
[Cu Sc As op Ci fib]
+24.7 +23.1 91 +33 +33 очень
душно
1011.4 1010.5
21 16.09 Ю 3 7000 м 8/4 450 м
[Cu Sc Ac trans Ci sp]
+24.3 +22.7 91 +32 +32 очень
душно
1012.2 1011.3
00 17.09 Ю 4 10 км 6/4 450 м
[Cu Sc Ac trans Ci fib]
+26.2 +23.1 83 +35 +39 очень
душно
1014.1 1013.2 +24.3
03 17.09 Ю 4 8000 м 8/4 450 м
[Cu Sc Ac trans Ci fib]
+27.0 +23.9 83 +37 +44 очень
душно
1012.9 1012.0
06 17.09 Ю 5 9000 м 6/4 450 м
[Cu Sc Ac trans Ci fib]
+27.1 +23.3 80 +37 +40 очень
душно
1011.2 1010.3
09 17.09 Ю 3 8000 м 8/5 450 м
[Cu med, cong Ac trans Ci sp]
+25.0 +23.1 89 +33 +33 очень
душно
1011.9 1011.0
12 17.09 ЮВ 4 6000 м 9/4 450 м
[Cu Sc Ac As Ci fib]
+24.7 +23.0 90 +33 +33 очень
душно
1013.5 1012.6 +28.4
15 17.09 Ю 3 6000 м 8/5 480 м
[Cu med, cong Ac trans Ci fib]
+24.5 +22.9 91 +32 +32 очень
душно
1013.6 1012.7
18 17.09 Ю 3 5000 м осадки на расстоянии 6/4 480 м
[Cu Sc As op Ci fib]
+24.2 +22.6 91 +32 +32 очень
душно
1012.6 1011.7
21 17.09 ЮВ 2 6000 м мгла {туман} 5/3 480 м
[Cu Sc As trans Ci fib]
+24.0 +22.8 93 +32 +32 очень
душно
1013.5 1012.6
00 18.09 Ю 3 8000 м 5/3 480 м
[Cu Sc As trans Ci fib]
+26.3 +23.1 83 +35 +41 очень
душно
1015.3 1014.4 +24.0

 

Местоположение метеостанции Каимана (Индонезия): широта -3.67 долгота 133.75 высота над уровнем моря 3 м.

В архиве по умолчанию представлена погода в Каимана за последнюю неделю. Архивные данные за месяц целиком и за предыдущие месяцы, начиная с января 2011 года, Вы можете получить, выбрав интересующий диапазон дат из раскрывающегося списка и нажав кнопку "Ввод!".


*Определитесь, кто Вы:
робот инопланетянин человек

Внимание! Время в таблицах - всемирное. Для получения местного времени необходимо прибавить поправку, которая равна 9 ч.

Смотрите также архив погоды в соседних городах и на ближайших метеорологических станциях:

Погода в Факфаке (Индонезия) (185 км)
Погода в Набире (Индонезия) (198 км)
Погода в Туале (Индонезия) (250 км)
Погода в Энаротали (Индонезия) (292 км)
Погода в Маноквари (Индонезия) (312 км)
Погода в Гесере (Индонезия) (324 км)
Погода в Серуи (Индонезия) (341 км)
Погода в Биаке (Индонезия) (381 км)
Погода в Аэропорту Соронг-Джефман (Индонезия) (423 км)
Погода в Коконао (Индонезия) (436 км)

Пояснения к столбцам:

Ветер - указаны скорость ветра в м/с - средняя за 10 мин, порывы в срок и между сроками (в фигурных скобках) и направление, откуда дует ветер: С - северный, СВ - северо-восточный, В - восточный, ЮВ - юго-восточный, Ю - южный, ЮЗ - юго-западный, З - западный, СЗ - северо-западный.
Видимость - горизонтальная дальность видимости в метрах или километрах. При видимости от 1 до 10 км при отсутствии осадков обычно наблюдается дымка, при ухудшении видимости до 1 км и менее - туман. В сухую погоду видимость может ухудшаться дымом, пылью или мглою.
Явления - указаны атмосферные явления, наблюдавшиеся в срок или в последний час перед сроком; фигурными скобками обозначены явления, наблюдавшиеся между сроками (за 1-3 часа до срока); квадратными скобками обозначены град или гололедные отложения с указанием их диаметра в мм.
Облачность - указаны через наклонную черту общая и нижняя облачность в баллах и высота нижней границы облаков в метрах; квадратными скобками обозначены формы облаков: Ci - перистые, Cs - перисто-слоистые, Cc - перисто-кучевые, Ac - высококучевые, As - высокослоистые, Sc - слоисто-кучевые, Ns - слоисто-дождевые, Cu - кучевые, Cb - кучево-дождевые. Подробнее классификацию облаков см. в Атласе облаков (PDF).
T - Температура воздуха - температура, измеренная на высоте 2 м над землей.
Td - Температура точки росы - температура, при понижении до которой содержащийся в воздухе водяной пар достигнет насыщения.
f - Относительная влажность воздуха - влажноcть воздуха, измеренная на высоте 2 м над землей.
Te - Эффективная температура - температура, которую ощущает одетый по сезону человек в тени. Характеристика душности погоды. При расчете учитывается влияние влажности воздуха и скорости ветра на теплоощущения человека.
Tes - Эффективная температура на солнце - температура, которую ощущает человек, с поправкой на солнечный нагрев. Характеристика знойности погоды. Зависит от высоты солнца над горизонтом, облачности и скорости ветра. Ночью, в пасмурную погоду, а также при ветре 12 м/с и более поправка равна нулю.
P - Атмосферное давление - приведенное к уровню моря атмосферное давление.
Po - Атмосферное давление - измеренное на уровне метеостанции атмосферное давление.
Tmin - Минимальная температура - минимум температуры воздуха на высоте 2 м над землей.
Tmax - Максимальная температура - максимум температуры воздуха на высоте 2 м над землей.
R - Количество осадков - Количество выпавших осадков за период времени, мм. При наведении курсора мыши на число - период времени, за который выпало указанное количество осадков.
R24 - Количество осадков - Количество выпавших осадков за 24 часа, мм.
S - Снежный покров - Высота снежного покрова, см. При наведении курсора мыши на число - состояние снежного покрова и степень покрытия местности в баллах.